Weather History for Cherokee, IA

Change the Weather History Date:

Wednesday, April 10, 2013

  Actual Average Record
Temperature  
Mean Temperature 32 °F -  
Max Temperature 34 °F 55 °F 89 °F (1977)
Min Temperature 31 °F 31 °F 17 °F (1989)
Degree Days  
Heating Degree Days 32    
Moisture  
Dew Point 31 °F    
Average Humidity 96    
Maximum Humidity 100    
Minimum Humidity 92    
Precipitation  
Precipitation 0.05 in - - ()
Sea Level Pressure  
Sea Level Pressure 29.91 in    
Wind  
Wind Speed 12 mph (NE)    
Max Wind Speed 23 mph    
Max Gust Speed 34 mph    
Visibility 7 miles    
Events Rain , Snow    
Averages and records for this station are not official NWS values.
T = Trace of Precipitation, MM = Missing Value Source: NWS Daily Summary

Daily Weather History Graph

Daily Weather History Graph

Search for Another Location

Airport:

Trip Planner

Search our weather history database for the weather conditions in past years. The results will help you decide how hot, cold, wet, or windy it might be!

Date:

Astronomy

Apr. 10, 2013 Rise Set
Actual Time 6:48 AM CDT 7:58 PM CDT
Civil Twilight 6:19 AM CDT 8:28 PM CDT
Nautical Twilight 5:44 AM CDT 9:02 PM CDT
Astronomical Twilight 5:08 AM CDT 9:39 PM CDT
Moon 6:44 AM CDT 8:37 PM CDT
Length of Visible Light 14h 08m
Length of Day
13h 10m
New Moon, 0% of the Moon is Illuminated
Apr 10
New Moon
Apr 18
First Quarter
Apr 25
Full
May 2
Last Quarter
May 9
New

Hourly Weather History & Observations

Time (CDT) Temp. Windchill Dew Point Humidity Pressure Visibility Wind Dir Wind Speed Gust Speed Precip Events Conditions
12:15 AM 34.7 °F 25.1 °F 32.5 °F 92% 29.94 in 10.0 mi NNE 15.0 mph 23.0 mph N/A   Overcast
12:35 AM 34.7 °F 25.5 °F 32.5 °F 92% 29.95 in 10.0 mi NNE 13.8 mph 24.2 mph N/A   Overcast
12:55 AM 34.3 °F 25.9 °F 32.2 °F 92% 29.97 in 10.0 mi NNE 11.5 mph - N/A   Overcast
1:15 AM 34.3 °F 26.5 °F 32.2 °F 92% 30.01 in 10.0 mi NNE 10.4 mph - N/A   Overcast
1:35 AM 34.2 °F 25.7 °F 32.0 °F 92% 29.99 in 10.0 mi NNE 11.5 mph 17.3 mph N/A   Overcast
1:55 AM 34.0 °F 24.6 °F 32.0 °F 92% 29.98 in 10.0 mi NNE 13.8 mph 18.4 mph N/A   Overcast
2:15 AM 33.8 °F 23.9 °F 32.0 °F 93% 29.98 in 10.0 mi NNE 15.0 mph - N/A   Overcast
2:35 AM 33.3 °F 22.5 °F 32.0 °F 95% 29.94 in 5.0 mi NE 17.3 mph - N/A   Overcast
2:55 AM 32.9 °F 22.4 °F 32.0 °F 96% 29.95 in 4.0 mi NNE 16.1 mph 20.7 mph N/A   Overcast
3:15 AM 32.7 °F 21.1 °F 32.0 °F 97% 29.92 in 5.0 mi NE 19.6 mph 26.5 mph N/A   Overcast
3:35 AM 32.5 °F 21.9 °F 31.8 °F 97% 29.92 in 5.0 mi NE 16.1 mph 27.6 mph N/A   Overcast
3:55 AM 32.4 °F 19.7 °F 31.6 °F 97% 29.85 in 7.0 mi NE 23.0 mph 34.5 mph N/A   Overcast
4:15 AM 32.7 °F 22.5 °F 31.6 °F 96% 29.97 in 10.0 mi NE 15.0 mph 20.7 mph N/A   Overcast
4:35 AM 32.5 °F 21.9 °F 31.5 °F 96% 29.94 in 10.0 mi NE 16.1 mph 24.2 mph N/A   Overcast
4:55 AM 32.5 °F 23.2 °F 31.5 °F 96% 29.94 in 10.0 mi NE 12.7 mph 21.9 mph N/A   Overcast
5:15 AM 32.4 °F 21.7 °F 31.1 °F 95% 29.94 in 10.0 mi NE 16.1 mph 21.9 mph N/A   Overcast
5:35 AM 32.2 °F 22.3 °F 31.1 °F 96% 29.92 in 10.0 mi NE 13.8 mph 21.9 mph N/A   Overcast
5:55 AM 32.0 °F 21.6 °F 31.1 °F 96% 29.91 in 10.0 mi NNE 15.0 mph 24.2 mph N/A   Overcast
6:15 AM 32.0 °F 21.6 °F 30.9 °F 96% 29.90 in 10.0 mi NE 15.0 mph 24.2 mph N/A   Overcast
6:35 AM 32.0 °F 22.1 °F 30.7 °F 95% 29.92 in 10.0 mi NE 13.8 mph 20.7 mph N/A   Overcast
6:55 AM 32.0 °F 21.6 °F 30.4 °F 94% 29.94 in 10.0 mi NNE 15.0 mph 24.2 mph N/A   Overcast
7:15 AM 31.6 °F 21.6 °F 30.2 °F 94% 29.96 in 10.0 mi NNE 13.8 mph 20.7 mph N/A   Overcast
7:35 AM 31.6 °F 22.1 °F 30.2 °F 94% 29.96 in 10.0 mi NE 12.7 mph - N/A   Overcast
7:55 AM 31.6 °F 22.1 °F 30.2 °F 94% 29.94 in 10.0 mi NE 12.7 mph 20.7 mph N/A   Overcast
8:15 AM 31.6 °F 22.6 °F 30.2 °F 94% 29.96 in 5.0 mi NE 11.5 mph 19.6 mph N/A   Overcast
8:35 AM 31.6 °F 22.6 °F 30.6 °F 96% 29.96 in 2.5 mi NE 11.5 mph 21.9 mph N/A   Overcast
8:55 AM 31.8 °F 21.8 °F 30.9 °F 96% 29.95 in 1.5 mi ENE 13.8 mph - N/A Snow Light Snow
9:15 AM 31.8 °F 23.3 °F 30.9 °F 96% 29.95 in 1.5 mi ENE 10.4 mph 20.7 mph N/A Snow Light Snow
9:35 AM 32.0 °F 22.5 °F 30.9 °F 96% 29.94 in 3.0 mi ENE 12.7 mph 19.6 mph N/A   Overcast
9:55 AM 32.0 °F 24.2 °F 30.9 °F 96% 29.92 in 10.0 mi NE 9.2 mph - N/A   Overcast
10:15 AM 32.0 °F 25.6 °F 30.7 °F 95% 29.96 in 10.0 mi NE 6.9 mph - N/A   Overcast
10:35 AM 32.0 °F 23.6 °F 30.7 °F 95% 29.94 in 7.0 mi NE 10.4 mph - N/A   Overcast
10:55 AM 32.0 °F 27.5 °F 31.1 °F 96% 29.95 in 1.8 mi North 4.6 mph - N/A   Overcast
11:15 AM 32.0 °F 26.4 °F 31.3 °F 97% 29.98 in 2.0 mi North 5.8 mph - N/A   Overcast
11:35 AM 32.0 °F 27.5 °F 31.5 °F 98% 29.98 in 1.8 mi North 4.6 mph - N/A   Overcast
12:15 PM 32.0 °F 24.8 °F 31.5 °F 98% 29.99 in 2.0 mi North 8.1 mph - N/A   Overcast
12:35 PM 32.0 °F 24.2 °F 31.6 °F 99% 29.98 in 2.0 mi NNE 9.2 mph - N/A   Overcast
12:55 PM 32.0 °F 24.2 °F 31.5 °F 98% 29.99 in 3.0 mi NNE 9.2 mph - N/A   Overcast
1:15 PM 32.4 °F 26.0 °F 31.8 °F 98% 29.98 in 4.0 mi NNE 6.9 mph - N/A   Overcast
1:35 PM 32.2 °F 24.4 °F 31.5 °F 97% 29.97 in 2.0 mi NNE 9.2 mph - N/A   Overcast
2:15 PM 32.5 °F 25.5 °F 31.8 °F 97% 29.97 in 2.5 mi NNE 8.1 mph - N/A   Overcast
2:35 PM 32.5 °F 23.7 °F 31.8 °F 97% 29.96 in 2.5 mi NNE 11.5 mph - N/A   Light Drizzle
2:55 PM 32.4 °F 23.0 °F 31.6 °F 97% 29.96 in 4.0 mi NNE 12.7 mph - N/A Rain Light Rain
3:15 PM 32.7 °F 23.9 °F 31.6 °F 96% 29.95 in 4.0 mi NNE 11.5 mph 17.3 mph N/A   Overcast
3:35 PM 32.5 °F 23.2 °F 31.6 °F 96% 29.94 in 3.0 mi NE 12.7 mph - N/A   Overcast
3:55 PM 32.4 °F 23.5 °F 31.3 °F 96% 29.92 in 5.0 mi NNE 11.5 mph 18.4 mph N/A   Overcast
4:15 PM 32.5 °F 23.2 °F 31.6 °F 96% 29.91 in 10.0 mi NNE 12.7 mph 18.4 mph N/A   Overcast
4:35 PM 32.9 °F 23.7 °F 31.5 °F 94% 29.91 in 10.0 mi NE 12.7 mph - N/A   Overcast
4:55 PM 32.5 °F 22.7 °F 31.1 °F 94% 29.90 in 10.0 mi NE 13.8 mph - N/A   Overcast
5:15 PM 32.4 °F 23.5 °F 31.1 °F 95% 29.87 in 10.0 mi NNE 11.5 mph - N/A   Overcast
5:35 PM 32.2 °F 25.0 °F 31.1 °F 96% 29.89 in 10.0 mi NE 8.1 mph 17.3 mph N/A   Overcast
5:55 PM 32.4 °F 23.0 °F 31.1 °F 95% 29.86 in 10.0 mi NE 12.7 mph 17.3 mph N/A   Overcast
6:15 PM 32.2 °F 24.4 °F 31.1 °F 96% 29.87 in 10.0 mi NNE 9.2 mph - N/A   Overcast
6:35 PM 32.4 °F 24.0 °F 31.1 °F 95% 29.85 in 10.0 mi NE 10.4 mph - N/A   Overcast
6:55 PM 32.4 °F 24.0 °F 31.1 °F 95% 29.84 in 10.0 mi NE 10.4 mph - N/A   Overcast
7:15 PM 32.2 °F 23.8 °F 31.1 °F 96% 29.82 in 10.0 mi NNE 10.4 mph - N/A   Overcast
7:35 PM 32.2 °F 23.2 °F 31.1 °F 96% 29.83 in 10.0 mi NE 11.5 mph - N/A   Overcast
7:55 PM 32.2 °F 23.8 °F 31.1 °F 96% 29.84 in 10.0 mi NE 10.4 mph - N/A   Overcast
8:15 PM 32.2 °F 24.4 °F 30.9 °F 95% 29.82 in 10.0 mi NE 9.2 mph - N/A   Overcast
8:35 PM 32.2 °F 24.4 °F 31.1 °F 96% 29.81 in 10.0 mi NE 9.2 mph - N/A   Overcast
8:55 PM 32.2 °F 25.0 °F 31.1 °F 96% 29.81 in 7.0 mi NE 8.1 mph - N/A   Overcast
9:15 PM 32.2 °F 25.8 °F 31.5 °F 97% 29.81 in 5.0 mi NE 6.9 mph - N/A   Overcast
9:55 PM 32.9 °F 26.7 °F 32.0 °F 96% 29.84 in 5.0 mi East 6.9 mph - 0.01 in Rain Rain
10:15 PM 32.4 °F 26.9 °F 31.6 °F 97% 29.83 in 3.0 mi ENE 5.8 mph - 0.01 in Snow Light Snow
10:35 PM 32.2 °F 27.7 °F 31.8 °F 99% 29.81 in 3.0 mi NE 4.6 mph - 0.02 in Snow Light Snow
10:55 PM 32.0 °F 28.7 °F 31.8 °F 99% 29.79 in 5.0 mi North 3.5 mph - 0.02 in Snow Light Snow
11:15 PM 32.0 °F - 31.8 °F 99% 29.78 in 7.0 mi Calm Calm - N/A   Drizzle
11:35 PM 32.0 °F - 32.0 °F 100% 29.78 in 3.0 mi Calm Calm - 0.01 in Rain Light Rain
11:55 PM 32.0 °F - 31.8 °F 99% 29.77 in 2.0 mi Calm Calm - 0.02 in   Overcast